{"data":{"norad_id":47289,"intl_designator":"2020-100AH","name":"ONEWEB-0143","alt_names":[],"object_type":"PAYLOAD","status":"ACTIVE","operator":null,"country":"UK","launch_date":"2020-12-18","launch_site_code":"VOSTO","launch_vehicle":null,"mission":null,"orbit_class":"UNKNOWN","rcs_meters":null,"size_class":null,"mass_kg":null,"dimensions":null,"purposes":["comms"],"wikipedia_slug":null,"has_3d_model":false,"image_url":null,"decayed_at":null,"tle_current":{"epoch":"2026-09-20T00:07:29.002656Z","epoch_age_seconds":64763,"freshness":"FRESH","line1":"1 47289U 20100AH  26263.00519679 -.00000214  00000+0 -62898-3 0  9993","line2":"2 47289  87.8979 331.8429 0001820 102.8864 257.2468 13.12444651277089","mean_motion":13.12444651,"eccentricity":0.000182,"inclination_deg":87.8979,"raan_deg":331.8429,"arg_perigee_deg":102.8864,"mean_anomaly_deg":257.2468,"bstar":-0.00062898,"rev_number":27708,"period_min":109.71891263398,"perigee_km":1212.3352068056,"apogee_km":1215.098641634,"semimajor_km":7591.8539242198,"source":"CELESTRAK","updated_at":"2026-09-20T09:00:44.582526Z"}}}